sat.trackr.live / text

‹ back to catalog

STARLINK-5524

NORAD 56474 · 2023-064AC

PAYLOAD ACTIVE UNKNOWN

§ Identity

Operator
Country
US
Launch date
2023-05-10
Launch site
AFWTR
Launch vehicle
Mass (kg)
RCS (m²)

Purposes: comms

External: N2YO · Heavens-Above · Gunter

§ Orbital elements

Epoch: 2026-05-25T02:54:03.362400Z

Period
96.11 min
Inclination
69.9989°
Eccentricity
0.0003002
Mean motion
14.98330433 rev/d
Perigee alt
570.0 km
Apogee alt
574.1 km
Semi-major
6,950.2 km
B*
-1.0820e-5
RAAN
291.9168°
Arg perigee
268.8117°
Mean anomaly
91.2698°
Rev number
16,718

§ Raw data

STARLINK-55241 56474U 23064AC  26145.12087225 -.00000222  00000+0 -10820-4 0  99982 56474  69.9989 291.9168 0003002 268.8117  91.2698 14.98330433167188

JSON: /api/v1/satellites/56474 · /tle

For live sub-satellite position, see the globe view (requires WebGL).

§ Visibility from observer

Set your observer location to see the next 7 days of passes ≥ 10°. The values pass through the URL so the page stays shareable.

No JS? Fill the form by hand. The geolocation button needs JavaScript.